Weather History for Duluth Sky Harbor, MN

Change the Weather History Date:

Wednesday, November 20, 2013

  Actual Average Record
Temperature  
Mean Temperature 42 °F -  
Max Temperature 46 °F 36 °F 58 °F (1982)
Min Temperature 37 °F 22 °F 3 °F (1984)
Degree Days  
Heating Degree Days 24    
Moisture  
Dew Point 26 °F    
Average Humidity 53    
Maximum Humidity 87    
Minimum Humidity 39    
Precipitation  
Precipitation 0.00 in - - ()
Sea Level Pressure  
Sea Level Pressure 29.94 in    
Wind  
Wind Speed 13 mph (South)    
Max Wind Speed 21 mph    
Max Gust Speed 25 mph    
Visibility 10 miles    
Events      
Averages and records for this station are not official NWS values.
T = Trace of Precipitation, MM = Missing Value Source: NWS Daily Summary

Daily Weather History Graph

Daily Weather History Graph

Search for Another Location

Airport:

Trip Planner

Search our weather history database for the weather conditions in past years. The results will help you decide how hot, cold, wet, or windy it might be!

Date:

Astronomy

Nov. 20, 2013 Rise Set
Actual Time 7:18 AM CST 4:29 PM CST
Civil Twilight 6:44 AM CST 5:02 PM CST
Nautical Twilight 6:07 AM CST 5:39 PM CST
Astronomical Twilight 5:31 AM CST 6:15 PM CST
Moon 7:12 PM CST (11/20) 9:44 AM CST (11/20)
Length of Visible Light 10h 17m
Length of Day
9h 10m
Waning Gibbous, 91% of the Moon is Illuminated
Nov 20
Waning Gibbous
Nov 25
Last Quarter
Dec 2
New
Dec 9
First Quarter
Dec 17
Full

Hourly Weather History & Observations

Time (CST) Temp. Windchill Dew Point Humidity Pressure Visibility Wind Dir Wind Speed Gust Speed Precip Events Conditions
12:13 AM 42.8 °F 36.2 °F 24.8 °F 49% 29.90 in 10.0 mi SSW 12.7 mph 19.6 mph N/A   Overcast
12:33 AM 42.8 °F 34.3 °F 24.8 °F 49% 29.89 in 10.0 mi South 19.6 mph 24.2 mph N/A   Overcast
12:54 AM 42.8 °F 35.4 °F 24.8 °F 49% 29.89 in 10.0 mi SSW 15.0 mph 24.2 mph N/A   Overcast
1:13 AM 42.8 °F 35.8 °F 24.8 °F 49% 29.89 in 10.0 mi SSW 13.8 mph 21.9 mph N/A   Overcast
1:33 AM 42.8 °F 35.4 °F 26.6 °F 53% 29.88 in 10.0 mi SSW 15.0 mph 25.3 mph N/A   Overcast
1:54 AM 42.8 °F 36.2 °F 24.8 °F 49% 29.89 in 10.0 mi South 12.7 mph - N/A   Overcast
2:13 AM 44.6 °F 37.2 °F 24.8 °F 46% 29.88 in 10.0 mi SSW 17.3 mph 21.9 mph N/A   Overcast
2:33 AM 44.6 °F 36.6 °F 24.8 °F 46% 29.88 in 10.0 mi South 19.6 mph 24.2 mph N/A   Overcast
2:54 AM 44.6 °F 37.8 °F 23.0 °F 43% 29.88 in 10.0 mi South 15.0 mph 21.9 mph N/A   Overcast
3:13 AM 44.6 °F 38.8 °F 23.0 °F 43% 29.88 in 10.0 mi SSW 11.5 mph 20.7 mph N/A   Overcast
3:34 AM 44.6 °F 38.1 °F 21.2 °F 39% 29.88 in 10.0 mi South 13.8 mph 21.9 mph N/A   Overcast
3:54 AM 44.6 °F 37.8 °F 21.2 °F 39% 29.88 in 10.0 mi South 15.0 mph 18.4 mph N/A   Overcast
4:13 AM 44.6 °F 38.4 °F 21.2 °F 39% 29.88 in 10.0 mi SSW 12.7 mph 18.4 mph N/A   Overcast
4:34 AM 44.6 °F 38.8 °F 21.2 °F 39% 29.89 in 10.0 mi SSW 11.5 mph - N/A   Overcast
4:53 AM 44.6 °F 37.8 °F 21.2 °F 39% 29.88 in 10.0 mi South 15.0 mph 25.3 mph N/A   Overcast
5:13 AM 44.6 °F 36.4 °F 21.2 °F 39% 29.88 in 10.0 mi South 20.7 mph 24.2 mph N/A   Overcast
5:34 AM 44.6 °F 38.1 °F 23.0 °F 43% 29.88 in 10.0 mi South 13.8 mph 21.9 mph N/A   Overcast
5:53 AM 44.6 °F 38.4 °F 23.0 °F 43% 29.88 in 10.0 mi South 12.7 mph - N/A   Overcast
6:14 AM 44.6 °F 38.4 °F 23.0 °F 43% 29.89 in 10.0 mi South 12.7 mph 18.4 mph N/A   Overcast
6:33 AM 44.6 °F 38.1 °F 24.8 °F 46% 29.89 in 10.0 mi South 13.8 mph 19.6 mph N/A   Overcast
6:53 AM 44.6 °F 38.1 °F 23.0 °F 43% 29.90 in 10.0 mi SSW 13.8 mph 19.6 mph N/A   Overcast
7:14 AM 44.6 °F 37.4 °F 23.0 °F 43% 29.90 in 10.0 mi SSW 16.1 mph 20.7 mph N/A   Overcast
7:33 AM 44.6 °F 38.1 °F 23.0 °F 43% 29.90 in 10.0 mi South 13.8 mph - N/A   Overcast
7:53 AM 44.6 °F 38.1 °F 21.2 °F 39% 29.90 in 10.0 mi South 13.8 mph 18.4 mph N/A   Overcast
8:14 AM 44.6 °F 39.2 °F 23.0 °F 43% 29.91 in 10.0 mi South 10.4 mph - N/A   Overcast
8:33 AM 44.6 °F 39.2 °F 23.0 °F 43% 29.92 in 10.0 mi South 10.4 mph 13.8 mph N/A   Overcast
8:54 AM 44.6 °F 37.8 °F 21.2 °F 39% 29.92 in 10.0 mi SSW 15.0 mph 18.4 mph N/A   Overcast
9:13 AM 44.6 °F 38.1 °F 21.2 °F 39% 29.93 in 10.0 mi South 13.8 mph - N/A   Overcast
9:33 AM 44.6 °F 38.4 °F 23.0 °F 43% 29.93 in 10.0 mi South 12.7 mph - N/A   Overcast
9:53 AM 44.6 °F 38.4 °F 21.2 °F 39% 29.94 in 10.0 mi South 12.7 mph - N/A   Overcast
10:13 AM 44.6 °F 38.1 °F 23.0 °F 43% 29.94 in 10.0 mi SSW 13.8 mph - N/A   Overcast
10:34 AM 44.6 °F 38.4 °F 21.2 °F 39% 29.94 in 10.0 mi SSW 12.7 mph - N/A   Overcast
10:53 AM 44.6 °F 38.1 °F 21.2 °F 39% 29.95 in 10.0 mi SSW 13.8 mph - N/A   Overcast
11:13 AM 44.6 °F 39.2 °F 23.0 °F 43% 29.94 in 10.0 mi SSW 10.4 mph - N/A   Overcast
11:33 AM 44.6 °F 38.4 °F 24.8 °F 46% 29.94 in 10.0 mi SSW 12.7 mph - N/A   Overcast
11:54 AM 44.6 °F 38.4 °F 24.8 °F 46% 29.93 in 10.0 mi South 12.7 mph - N/A   Overcast
12:13 PM 44.6 °F 38.1 °F 24.8 °F 46% 29.93 in 10.0 mi South 13.8 mph 17.3 mph N/A   Overcast
12:34 PM 44.6 °F 38.8 °F 24.8 °F 46% 29.93 in 10.0 mi SSW 11.5 mph 17.3 mph N/A   Overcast
12:53 PM 44.6 °F 39.7 °F 26.6 °F 49% 29.93 in 10.0 mi South 9.2 mph - N/A   Overcast
1:11 PM 46.4 °F 41.5 °F 24.8 °F 43% 29.93 in 10.0 mi South 10.4 mph - N/A   Mostly Cloudy
1:33 PM 46.4 °F 41.5 °F 26.6 °F 46% 29.92 in 10.0 mi South 10.4 mph 15.0 mph N/A   Scattered Clouds
1:53 PM 46.4 °F 40.1 °F 26.6 °F 46% 29.92 in 10.0 mi SSW 15.0 mph 20.7 mph N/A   Clear
2:14 PM 44.6 °F 37.8 °F 26.6 °F 49% 29.92 in 10.0 mi South 15.0 mph - N/A   Clear
2:33 PM 44.6 °F 38.8 °F 26.6 °F 49% 29.93 in 10.0 mi South 11.5 mph - N/A   Clear
2:54 PM 44.6 °F 39.2 °F 26.6 °F 49% 29.93 in 10.0 mi South 10.4 mph - N/A   Clear
3:13 PM 44.6 °F 39.2 °F 26.6 °F 49% 29.93 in 10.0 mi South 10.4 mph - N/A   Clear
3:34 PM 44.6 °F 40.7 °F 26.6 °F 49% 29.93 in 10.0 mi South 6.9 mph - N/A   Scattered Clouds
3:53 PM 44.6 °F 40.2 °F 26.6 °F 49% 29.94 in 10.0 mi South 8.1 mph - N/A   Overcast
4:13 PM 44.6 °F 39.7 °F 28.4 °F 53% 29.94 in 10.0 mi SSE 9.2 mph - N/A   Overcast
4:34 PM 44.6 °F 38.4 °F 26.6 °F 49% 29.95 in 10.0 mi South 12.7 mph 18.4 mph N/A   Overcast
4:54 PM 42.8 °F 35.8 °F 28.4 °F 57% 29.96 in 10.0 mi South 13.8 mph 19.6 mph N/A   Overcast
5:13 PM 42.8 °F 35.8 °F 28.4 °F 57% 29.96 in 10.0 mi South 13.8 mph - N/A   Overcast
5:34 PM 42.8 °F 36.6 °F 28.4 °F 57% 29.97 in 10.0 mi South 11.5 mph - N/A   Overcast
5:54 PM 42.8 °F 37.5 °F 28.4 °F 57% 29.98 in 10.0 mi South 9.2 mph - N/A   Overcast
6:13 PM 41.0 °F 33.9 °F 28.4 °F 61% 29.99 in 10.0 mi South 12.7 mph - N/A   Overcast
6:34 PM 41.0 °F 33.9 °F 30.2 °F 65% 29.99 in 10.0 mi South 12.7 mph - N/A   Overcast
6:53 PM 39.2 °F 31.2 °F 30.2 °F 70% 29.99 in 10.0 mi South 13.8 mph 18.4 mph N/A   Overcast
7:13 PM 39.2 °F 32.5 °F 30.2 °F 70% 30.00 in 10.0 mi South 10.4 mph - N/A   Overcast
7:34 PM 39.2 °F 31.6 °F 30.2 °F 70% 30.00 in 10.0 mi South 12.7 mph - N/A   Overcast
7:53 PM 39.2 °F 32.5 °F 32.0 °F 75% 30.01 in 10.0 mi South 10.4 mph - N/A   Overcast
8:14 PM 39.2 °F 31.6 °F 32.0 °F 75% 30.02 in 10.0 mi South 12.7 mph - N/A   Overcast
8:33 PM 39.2 °F 32.0 °F 32.0 °F 75% 30.02 in 10.0 mi South 11.5 mph - N/A   Overcast
8:53 PM 37.4 °F 29.8 °F 32.0 °F 81% 30.03 in 10.0 mi South 11.5 mph - N/A   Overcast
9:14 PM 37.4 °F 30.3 °F 33.8 °F 87% 30.03 in 10.0 mi South 10.4 mph - N/A   Overcast
9:33 PM 37.4 °F 30.8 °F 32.0 °F 81% 30.03 in 10.0 mi South 9.2 mph - N/A   Overcast
9:53 PM 37.4 °F 30.8 °F 32.0 °F 81% 30.03 in 10.0 mi South 9.2 mph - N/A   Overcast
10:14 PM 37.4 °F 30.8 °F 32.0 °F 81% 30.03 in 10.0 mi South 9.2 mph - N/A   Overcast
10:33 PM 37.4 °F 32.1 °F 32.0 °F 81% 30.03 in 10.0 mi South 6.9 mph - N/A   Overcast
10:54 PM 37.4 °F 31.4 °F 32.0 °F 81% 30.04 in 10.0 mi South 8.1 mph - N/A   Overcast
11:14 PM 37.4 °F 32.1 °F 32.0 °F 81% 30.04 in 10.0 mi South 6.9 mph - N/A   Overcast
11:33 PM 37.4 °F 32.1 °F 33.8 °F 87% 30.04 in 10.0 mi South 6.9 mph - N/A   Overcast
11:54 PM 37.4 °F 32.1 °F 33.8 °F 87% 30.05 in 10.0 mi South 6.9 mph - N/A   Overcast